Air Resources Laboratory banner image
Air Resources Laboratory web site National Oceanic and Atmospheric Administration (NOAA)

co roundup


Office: BOU

ASUS45 KBOU 180410
RWRCO

WEATHER ROUNDUP FOR COLORADO
NATIONAL WEATHER SERVICE DENVER/BOULDER CO
1000 PM MDT FRI AUG 17 2018

NOTE: "FAIR" INDICATES FEW OR NO CLOUDS BELOW 12000 FEET WITH NO
SIGNIFICANT WEATHER AND/OR OBSTRUCTIONS TO VISIBILITY.

COZ001>005-013-030-031-180500-
...NORTHWEST COLORADO...

CITY           SKY/WX    TMP DP  RH WIND       PRES   REMARKS
CRAIG          FAIR      74  45  35 NE7       30.25R
HAYDEN         FAIR      66  49  54 E6        30.30R
MEEKER         FAIR      69  42  37 NE7       30.27R
RANGELY        FAIR      74  45  35 CALM      30.16R
RABBIT EARS PA FAIR      55  37  50 CALM      30.62S
STEAMBOAT SPGS FAIR      68  44  42 CALM      30.31S
WALDEN         FAIR      57  39  51 S3        30.42S
$$

COZ006>008-011-180500-
...WEST CENTRAL VALLEYS...

CITY           SKY/WX    TMP DP  RH WIND       PRES   REMARKS
GRAND JUNCTION FAIR      76  43  30 E7        30.12R
MONTROSE       FAIR      75  45  34 S9        30.25R
EAGLE          FAIR      68  50  52 W3        30.33R
RIFLE          FAIR      76  41  28 S7        30.20R
DELTA          FAIR      77  44  31 NE7       30.20R
NUCLA          FAIR      75  37  25 SE5         N/A
$$

COZ017>023-064>068-180500-
...SOUTHWEST COLORADO...

CITY           SKY/WX    TMP DP  RH WIND       PRES   REMARKS
DURANGO        MOCLDY    64  56  75 W3        30.39R
CORTEZ         MOCLDY    72  49  44 NE5       30.26R
PAGOSA SPRINGS FAIR      59  52  78 CALM      30.46S
TELLURIDE      FAIR      55  48  76 E3        30.55R
WOLF CREEK PAS MOCLDY    46  39  76 CALM      30.80R
$$

COZ009-010-012-014-032>034-037-058>063-180500-
...CENTRAL COLORADO...

CITY           SKY/WX    TMP DP  RH WIND       PRES   REMARKS
ASPEN          CLOUDY    67  42  40 SW6       30.39R
BUENA VISTA    CLOUDY   N/A N/A N/A CALM      30.47R
COPPER MTN     CLOUDY    54  39  58 NE6       30.75R
BERTHOUD PASS  CLOUDY    43  30  61 S12       30.79S
COTTONWOOD PAS CLOUDY    61  46  59 CALM      30.60R
GUNNISON       FAIR      58  53  84 CALM      30.42R
GRANBY         MOCLDY    63  45  53 S7        30.45F
KREMMLING      CLOUDY    64  50  59 CALM      30.41R
LEADVILLE      FAIR      50  45  83 E6        30.58R
MONARCH PASS   CLOUDY    50  41  71 MISG      30.84S
SALIDA         FAIR      62  52  69 SW6       30.51R
SUNLIGHT       FAIR      54  34  47 CALM      30.67R
WILKERSON PASS CLOUDY    52  37  58 CALM      30.73R
$$

COZ069>075-180500-
...SAN LUIS VALLEY/SANGRE DE CRISTO MOUNTAINS...

CITY           SKY/WX    TMP DP  RH WIND       PRES   REMARKS
ALAMOSA        MOCLDY    60  49  66 S6        30.41R
DEL NORTE      MOCLDY    62  51  67 S3        30.46R
LA VETA PASS   NOT AVBL
SAGUACHE       CLOUDY    61  52  72 NW13      30.45R
$$

COZ035-036-038>040-180500-
...NORTHERN COLORADO FRONT RANGE...

CITY           SKY/WX    TMP DP  RH WIND       PRES   REMARKS
DENVER INTL AP MOCLDY    66  56  70 SE20      30.26R
AURORA         NOT AVBL
FRONT RANGE AP NOT AVBL
ERIE MUNI ARPT FAIR      70  53  54 S5G10     30.31R
BOULDER MUN AP FAIR      68  57  68 CALM      30.27R
CENTENNIAL     MOCLDY    65  56  72 SE14G22   30.29R
BROOMFIELD     MOCLDY    70  54  56 SE6       30.29R
FORT COLLINS   FAIR      69  53  56 S9        30.26R
LONGMONT       FAIR      70  55  57 E6        30.28R
$$

COZ041-046-047-076>085-087-088-180500-
...PIKES PEAK/PALMER DIVIDE AND SOUTHERN FOOTHILLS...

CITY           SKY/WX    TMP DP  RH WIND       PRES   REMARKS
COLO. SPRINGS  FAIR      62  57  83 E6        30.38R
A. F. ACADEMY  NOT AVBL
SCHRIEVER AFB  NOT AVBL
CHEYENNE MTN   NOT AVBL
ELLICOTT         N/A    N/A N/A N/A SE8       30.37R
FALCON         FAIR      59  55  88 SE9       30.44R
FORT CARSON    FAIR      59  57  94 SW5       30.34R
LIMON          FAIR      59  59 100 SE15G22   30.35R
MONUMENT HILL  FAIR      57  55  94 SE13      30.41R
CANON CITY     CLEAR     64  59  82 SW5       30.31R
WALSENBURG     NOT AVBL
TRINIDAD       TSTM      64  61  90 S8        30.35R FOG
$$

COZ042>045-048>051-090-091-180500-
...NORTHEAST COLORADO...

CITY           SKY/WX    TMP DP  RH WIND       PRES   REMARKS
GREELEY ARPT   FAIR      68  55  63 S10       30.25R
AKRON          FAIR      64  58  80 S17G24    30.26R
BURLINGTON     TSTM      65  63  93 N10       30.30R
WRAY           FAIR      70  59  68 S5        30.19S
YUMA           FAIR      64  41  42 S5        30.21R
STERLING       FAIR      64  59  82 S9        30.21R
HOLYOKE        FAIR      73  63  68 S5        30.20R
FORT MORGAN    FAIR      66  55  67 S16G24    30.25R
$$

COZ086-089-092>099-180500-
...SOUTHEAST COLORADO...

CITY           SKY/WX    TMP DP  RH WIND       PRES   REMARKS
PUEBLO         FAIR      67  64  90 NE5       30.27S
LA JUNTA       RAIN      67  65  93 E14       30.24F
LAMAR          MOCLDY    76  61  59 W3        30.22R
SPRINGFIELD      N/A     66  62  87 CALM      30.25R
$$